Location: Brunembert
(50.7122°N, 1.8935°E)
Time: 14:15:41
(UTC+00:00)

Cosmos 1500 Rocket - Pass Details

Date: 05 August 2021
Orbit: 602 x 632 km, 82.5° (Epoch: 23 September)

Event Time Altitude Azimuth Distance (km) Brightness Sun altitude
Exits shadow 21:40:09 18° 192° (SSW) 1,535 5.2 -16.1°
Maximum altitude 21:43:25 85° 277° (W) 638 3.6 -16.4°
Drops below altitude 10° 21:47:56 10° 9° (N) 2,024 6.9 -16.8°
Sets 21:50:11 0° 10° (N) 2,939 7.8 -16.9°
